EW8461 Weather Reports


Display with metric or nautical units.
time (UTC)temp
F
wind
direction
speed
MPH
gust
MPH
rain 1hr
in
rain 24hr
in
rain mn
in
humidity
%
barometer
mb
20190224030122 0 134 0.0 0.0 0.06 0.44 0.10 1019.7
20190224024700 0 134 0.0 0.0 0.03 0.45 0.07 1019.5
20190224023051 0 134 0.0 0.0 0.02 0.44 0.06 1019.3
20190224021525 0 134 0.0 1.0 0.01 0.43 0.05 1019.4
20190224020033 0 134 0.0 0.0 0.00 0.42 0.04 1019.4
20190224014523 0 134 0.0 1.0 0.01 0.44 0.04 1019.5
20190224013015 0 132 0.0 1.0 0.01 0.44 0.04 1019.7
20190224011509 0 39 0.0 1.0 0.01 0.44 0.04 1019.8
20190224010006 0 23 0.0 1.0 0.01 0.44 0.04 1019.8
20190224004716 0 146 0.0 1.0 0.00 0.43 0.03 1020.0
20190224003145 0 342 0.0 2.0 0.00 0.43 0.03 1020.1
20190224001719 0 27 0.0 1.0 0.00 0.43 0.03 1020.3
20190224000121 0 300 0.0 1.0 0.00 0.43 0.03 1020.3
20190223234633 0 174 0.0 2.0 0.00 0.43 0.03 1020.4
20190223233047 0 146 0.0 0.0 0.00 0.43 0.03 1020.5
20190223231545 0 69 0.0 0.0 0.00 0.43 0.03 1020.6
20190223230119 0 45 0.0 0.0 0.00 0.43 0.03 1020.6
20190223224601 0 89 0.0 1.0 0.00 0.43 0.03 1020.6
20190223223053 0 89 0.0 1.0 0.00 0.43 0.03 1020.8
20190223221525 0 350 0.0 1.0 0.00 0.43 0.03 1021.0
20190223220037 0 348 0.0 2.0 0.00 0.43 0.03 1021.1
20190223214518 0 107 0.0 2.0 0.00 0.43 0.03 1021.3
20190223213023 0 26 0.0 1.0 0.00 0.43 0.03 1021.5
20190223211733 0 326 0.0 3.0 0.00 0.43 0.03 1021.6
20190223210155 0 22 0.0 2.0 0.00 0.43 0.03 1021.7
20190223204637 0 338 0.0 3.0 0.00 0.43 0.03 1021.9
20190223203211 0 342 0.0 1.0 0.00 0.43 0.03 1021.9
20190223201609 0 66 0.0 1.0 0.00 0.43 0.03 1022.1
20190223200119 0 66 0.0 1.0 0.00 0.43 0.03 1022.2
20190223194612 0 109 0.0 1.0 0.00 0.43 0.03 1022.2
20190223193113 0 109 0.0 1.0 0.00 0.43 0.03 1022.3
20190223191540 0 109 0.0 3.0 0.00 0.43 0.03 1022.4
20190223190047 0 148 0.0 2.0 0.00 0.43 0.03 1022.3
20190223184538 0 88 0.0 1.0 0.00 0.43 0.03 1022.2
20190223183039 0 88 0.0 0.0 0.00 0.43 0.03 1022.2
20190223181546 0 88 0.0 0.0 0.00 0.43 0.03 1022.1
20190223180043 0 88 0.0 2.0 0.01 0.43 0.03 1022.2
20190223174540 0 87 0.0 0.0 0.01 0.43 0.03 1022.5
20190223173019 0 87 0.0 0.0 0.01 0.43 0.03 1022.4
20190223171523 0 87 0.0 0.0 0.01 0.43 0.03 1022.5
20190223170005 0 87 0.0 0.0 0.00 0.42 0.02 1022.6
20190223164702 0 87 0.0 0.0 0.00 0.42 0.02 1022.6
20190223163155 0 87 0.0 0.0 0.00 0.42 0.02 1022.7
20190223161554 0 115 0.0 0.0 0.00 0.42 0.02 1022.7
20190223160153 0 157 0.0 0.0 0.00 0.42 0.02 1022.7
20190223154610 0 155 0.0 0.0 0.00 0.42 0.02 1022.6
20190223153139 0 232 0.0 0.0 0.00 0.42 0.02 1022.6
20190223151556 0 20 0.0 1.0 0.00 0.42 0.02 1022.4
20190223150037 0 20 0.0 0.0 0.00 0.42 0.02 1022.2
20190223144607 0 350 0.0 0.0 0.00 0.42 0.02 1022.1
20190223143035 0 350 0.0 0.0 0.00 0.42 0.02 1022.1
20190223141518 0 350 0.0 0.0 0.00 0.42 0.02 1022.2
20190223140038 0 350 0.0 0.0 0.00 0.42 0.02 1022.2
20190223134514 0 350 0.0 1.0 0.00 0.42 0.02 1022.0
20190223133331 0 350 0.0 1.0 0.00 0.42 0.02 1021.8
20190223131748 0 350 0.0 1.0 0.00 0.42 0.02 1021.8
20190223130147 0 350 0.0 1.0 0.00 0.42 0.02 1021.8
20190223124607 0 350 0.0 1.0 0.00 0.42 0.02 1021.6
20190223123106 0 350 0.0 0.0 0.00 0.42 0.02 1021.7
20190223121610 0 350 0.0 1.0 0.00 0.42 0.02 1021.7
20190223120042 0 350 0.0 1.0 0.00 0.42 0.02 1021.5
20190223114559 0 350 0.0 0.0 0.00 0.42 0.02 1021.5
20190223113034 0 350 0.0 0.0 0.00 0.42 0.02 1021.5
20190223111603 0 350 0.0 0.0 0.00 0.42 0.02 1021.4
20190223110035 0 350 0.0 0.0 0.00 0.42 0.02 1021.4
20190223104524 0 350 0.0 1.0 0.00 0.42 0.02 1021.3
20190223103012 0 350 0.0 0.0 0.01 0.42 0.02 1021.5
20190223101506 0 350 0.0 1.0 0.01 0.42 0.02 1021.6
20190223100227 0 350 0.0 0.0 0.01 0.42 0.02 1021.5
20190223094657 0 350 0.0 0.0 0.01 0.42 0.02 1021.4
20190223093100 0 350 0.0 1.0 0.00 0.41 0.01 1021.2
20190223091647 0 350 0.0 1.0 0.01 0.41 0.01 1021.0
20190223090055 0 350 0.0 1.0 0.01 0.41 0.01 1021.1
20190223084628 0 350 0.0 2.0 0.01 0.41 0.01 1021.0
20190223083057 0 350 0.0 0.0 0.02 0.41 0.01 1020.9
20190223081621 0 350 0.0 0.0 0.02 0.40 0.00 1021.0
20190223080052 0 350 0.0 1.0 0.04 0.40 0.00 1020.9
20190223074542 0 350 0.0 0.0 0.06 0.40 0.40 1020.8
20190223073059 0 350 0.0 1.0 0.06 0.39 0.39 1020.6
20190223071526 0 350 0.0 1.0 0.06 0.38 0.38 1020.4
20190223070028 0 350 0.0 2.0 0.06 0.36 0.36 1020.6
20190223064609 0 350 0.0 0.0 0.04 0.34 0.34 1020.5
20190223063033 0 350 0.0 1.0 0.04 0.33 0.33 1020.4
20190223061546 0 350 0.0 1.0 0.03 0.32 0.32 1020.1
20190223060051 0 350 0.0 2.0 0.02 0.30 0.30 1019.9
20190223054526 0 350 0.0 1.0 0.04 0.30 0.30 1020.0
20190223053047 0 350 0.0 1.0 0.07 0.28 0.28 1019.8
20190223051528 0 350 0.0 1.0 0.11 0.28 0.28 1020.1
20190223050030 0 350 0.0 0.0 0.11 0.28 0.28 1020.2
20190223044502 0 350 0.0 1.0 0.11 0.26 0.26 1020.2
20190223043151 0 350 0.0 1.0 0.10 0.22 0.22 1020.2
20190223041731 0 350 0.0 2.0 0.10 0.18 0.18 1020.0
20190223040114 0 350 0.0 1.0 0.10 0.17 0.17 1019.8
20190223034627 0 350 0.0 3.0 0.10 0.15 0.15 1020.0
20190223033135 0 350 0.0 2.0 0.07 0.12 0.12 1019.9